Home > Weather > Punta Cana > Past weeks

Flag for Dominican Republic Past Weather in Punta Cana, Dominican Republic — Yesterday and Last 2 Weeks

Now
86 °F

Passing clouds.


Feels Like: 99 °F
Forecast: N/A
Wind: 12 mph from East

Location: Punta Cana

Current Time: Jul 27, 2016 at 5:19:25 PM

Latest Report: Jul 27, 2016 at 5:00 PM


Visibility: N/A

Pressure: 29.98 "Hg

Humidity: 79%

Dew Point: 79 °F

Location of Punta CanaLocation

Past Weather in Punta Cana — Graph

°F

Punta Cana Temperature Yesterday

Maximum temperature yesterday: 88 °F (at 3:00 PM)
Minimum temperature yesterday: 75 °F (at 6:00 AM)
Average temperature yesterday: 82 °F

High & Low Weather Summary for the Past Weeks

 TemperatureHumidityPressure
High90 °F (Jul 16, 2:00 PM)100% (Jul 18, 5:00 AM)30.09 "Hg (Jul 18, 5:00 AM)
Low75 °F (Jul 14, 11:00 PM)62% (Jul 23, 12:00 PM)29.95 "Hg (Jul 15, 5:00 PM)
Average83 °F80%30.02 "Hg
* Reported Jul 12 4:00 PM — Jul 27 4:00 PM, Punta Cana, Weather by CustomWeather, © 2016

Note: Actual official high and low records may vary slightly from our data, if they occured in-between our weather recording intervals... More about our weather records

Advertising

Punta Cana Weather History for the Previous 24 Hours

Scroll right to see more
 ConditionsComfort  
Time TempWeatherWind HumidityBarometerVisibility
4:00 PM
Wed, Jul 27
86 °FScattered clouds.13 mph75%29.98 "HgN/A
3:00 PM88 °FPassing clouds.14 mph70%29.98 "HgN/A
2:00 PM88 °FPassing clouds.12 mph75%30.01 "HgN/A
1:00 PM90 °FPassing clouds.9 mph71%30.01 "HgN/A
12:00 PM88 °FPassing clouds.9 mph70%30.04 "HgN/A
11:00 AM88 °FPassing clouds.13 mph70%30.04 "HgN/A
10:00 AM88 °FPassing clouds.9 mph70%30.04 "HgN/A
9:00 AM84 °FPassing clouds.9 mph79%30.01 "HgN/A
8:00 AM81 °FPassing clouds.9 mph79%30.01 "HgN/A
7:00 AM77 °FPassing clouds.7 mph83%30.01 "HgN/A
6:00 AM79 °FPassing clouds.7 mph89%29.98 "HgN/A
5:00 AM81 °FPassing clouds.9 mph84%29.98 "HgN/A
4:00 AM82 °FPassing clouds.9 mph89%29.98 "HgN/A
3:00 AM82 °FPassing clouds.9 mph79%29.95 "HgN/A
2:00 AM82 °FPassing clouds.8 mph89%30.01 "HgN/A
1:00 AM82 °FPassing clouds.10 mph89%30.01 "HgN/A
12:00 AM82 °FPassing clouds.8 mph89%30.01 "HgN/A
11:00 PM
Tue, Jul 26
82 °FPassing clouds.8 mph89%30.01 "HgN/A
10:00 PM81 °FPartly cloudy.5 mph94%30.01 "HgN/A
9:00 PM82 °FPartly cloudy.8 mph89%29.98 "HgN/A
8:00 PM82 °FPartly cloudy.7 mph89%29.98 "HgN/A
7:00 PM82 °FPartly sunny.12 mph89%29.98 "HgN/A
6:00 PM84 °FPartly sunny.9 mph79%29.95 "HgN/A
5:00 PM86 °FScattered clouds.9 mph75%29.95 "HgN/A
Weather by CustomWeather, © 2016

See weather overviewHow to use our weather pages